Madison, WI

4:11 PM CST on November 11, 2019 (GMT -0600)
Dane County Regional-Truax

Weather History for KMSN - June, 2019

Change the Weather History Date:

Saturday, June 1, 2019

  Actual Average Record
Temperature  
Mean Temperature 64 °F 62 °F  
Max Temperature 73 °F 74 °F 100 °F (1934)
Min Temperature 55 °F 51 °F 34 °F (1966)
Degree Days  
Heating Degree Days 1 5  
Month to date heating degree days 1 5  
Since 1 June heating degree days 1 5  
Since 1 July heating degree days 7460 7278  
Cooling Degree Days 0 2  
Month to date cooling degree days 0 2  
Year to date cooling degree days 20 32  
Since 1 June cooling degree days 0 2  
Growing Degree Days 15 (Base 50)    
Moisture  
Dew Point 59 °F    
Average Humidity 82    
Maximum Humidity 100    
Minimum Humidity 64    
Precipitation  
Precipitation 0.47 in 0.15 in 3.46 in (2000)
Month to date precipitation 0.47 0.15  
Year to date precipitation 16.28 11.98  
Snow  
Snow 0.00 in 0.00 in 0.00 in (2018)
Month to date snowfall 0.0 0.0  
Since 1 June snowfall 0.0 0.0  
Since 1 July snowfall 57.2 50.9  
Snow Depth 0.00 in    
Sea Level Pressure  
Sea Level Pressure 29.77 in    
Wind  
Wind Speed 5 mph (NNE)    
Max Wind Speed 22 mph    
Max Gust Speed 32 mph    
Visibility 7 miles    
Events Fog , Rain , Thunderstorm    
T = Trace of Precipitation, MM = Missing Value Source: NWS Daily Summary

Daily Weather History Graph

Daily Weather History Graph

Search for Another Location

Airport or City:

Astronomy

Jun. 01, 2019 Rise Set
Actual Time 5:20 AM CDT 8:30 PM CDT
Civil Twilight 4:46 AM CDT 9:04 PM CDT
Nautical Twilight 4:01 AM CDT 9:49 PM CDT
Astronomical Twilight 3:08 AM CDT 10:43 PM CDT
Moon 4:30 AM CDT (6/1) 6:39 PM CDT (6/1)
Length of Visible Light 16h 18m
Length of Day
15h 09m
Waning Crescent, 4% of the Moon is Illuminated
Jun 1
Waning Crescent
Jun 3
New
Jun 10
First Quarter
Jun 17
Full
Jun 25
Last Quarter

Hourly Weather History & Observations

Time (CDT) Temp. Dew Point Humidity Pressure Visibility Wind Dir Wind Speed Gust Speed Precip Events Conditions
12:53 AM 71.1 °F 62.1 °F 73% 29.74 in 10.0 mi SW 5.8 mph - N/A   Clear
1:53 AM 70.0 °F 61.0 °F 73% 29.73 in 10.0 mi WSW 4.6 mph - N/A   Clear
2:53 AM 66.9 °F 59.0 °F 76% 29.74 in 10.0 mi Calm Calm - N/A   Clear
3:53 AM 64.0 °F 59.0 °F 84% 29.74 in 10.0 mi Calm Calm - N/A   Clear
4:53 AM 66.9 °F 59.0 °F 76% 29.74 in 10.0 mi Variable 3.5 mph - N/A   Clear
5:53 AM 64.0 °F 59.0 °F 84% 29.75 in 9.0 mi North 6.9 mph - N/A   Mostly Cloudy
6:53 AM 64.9 °F 60.1 °F 84% 29.75 in 8.0 mi NE 10.4 mph - N/A   Mostly Cloudy
7:15 AM 64.0 °F 59.0 °F 84% 29.80 in 7.0 mi North 5.8 mph - N/A Thunderstorm Thunderstorm
7:53 AM 62.1 °F 57.9 °F 86% 29.77 in 7.0 mi East 9.2 mph - N/A Thunderstorm Thunderstorm
8:08 AM 62.1 °F 57.0 °F 84% 29.78 in 7.0 mi ENE 4.6 mph - N/A   Overcast
8:53 AM 62.1 °F 57.0 °F 84% 29.81 in 8.0 mi North 8.1 mph - N/A   Overcast
8:58 AM 62.1 °F 57.0 °F 84% 29.82 in 7.0 mi North 12.7 mph 26.5 mph N/A   Overcast
9:53 AM 63.0 °F 55.9 °F 78% 29.81 in 10.0 mi East 9.2 mph - N/A   Overcast
10:53 AM 69.1 °F 57.9 °F 68% 29.77 in 10.0 mi ESE 3.5 mph - N/A   Mostly Cloudy
11:53 AM 71.1 °F 59.0 °F 66% 29.75 in 9.0 mi SSE 10.4 mph - 0.00 in Rain Light Rain
12:53 PM 71.1 °F 61.0 °F 70% 29.76 in 8.0 mi South 5.8 mph - 0.00 in   Overcast
1:00 PM 72.0 °F 62.1 °F 71% 29.78 in 8.0 mi SW 3.5 mph - N/A   Overcast
1:53 PM 73.0 °F 61.0 °F 66% 29.77 in 7.0 mi NW 3.5 mph - 0.00 in Thunderstorm Thunderstorm
2:42 PM 66.0 °F 61.0 °F 84% 29.75 in 5.0 mi NNE 10.4 mph - 0.01 in Rain Light Rain
2:53 PM 66.9 °F 61.0 °F 81% 29.74 in 10.0 mi North 9.2 mph - 0.01 in Rain Light Rain
3:53 PM 68.0 °F 60.1 °F 76% 29.75 in 9.0 mi Calm Calm - 0.00 in   Overcast
4:53 PM 71.1 °F 60.1 °F 68% 29.74 in 10.0 mi NNE 8.1 mph - N/A   Overcast
5:53 PM 71.1 °F 59.0 °F 66% 29.75 in 10.0 mi North 4.6 mph - N/A   Overcast
6:53 PM 69.1 °F 60.1 °F 73% 29.75 in 10.0 mi East 5.8 mph - N/A   Overcast
7:39 PM 66.9 °F 61.0 °F 81% 29.79 in 1.0 mi North 19.6 mph 32.2 mph 0.00 in Rain Rain
7:41 PM 64.9 °F 61.0 °F 87% 29.78 in 1.0 mi NNW 13.8 mph 32.2 mph 0.05 in Rain Heavy Rain
7:43 PM 63.0 °F 60.1 °F 90% 29.77 in 0.5 mi North 10.4 mph 32.2 mph 0.27 in Rain Heavy Rain
7:50 PM 64.4 °F 60.8 °F 88% 29.77 in 9.0 mi NNE 9.2 mph 17.3 mph 0.46 in Rain Light Rain
7:53 PM 64.0 °F 60.1 °F 87% 29.77 in 10.0 mi NNE 10.4 mph - 0.46 in Rain Light Rain
8:24 PM 63.0 °F 60.1 °F 90% 29.79 in 8.0 mi NE 8.1 mph - 0.00 in   Overcast
8:48 PM 62.6 °F 60.8 °F 94% 29.79 in 9.0 mi NNE 6.9 mph - 0.00 in   Mostly Cloudy
8:51 PM 62.6 °F 60.8 °F 94% 29.79 in 8.0 mi NNE 6.9 mph - 0.00 in   Overcast
8:53 PM 63.0 °F 60.1 °F 90% 29.79 in 8.0 mi NNE 5.8 mph - 0.00 in   Overcast
9:53 PM 60.1 °F 57.9 °F 93% 29.82 in 5.0 mi Calm Calm - N/A   Scattered Clouds
10:25 PM 59.0 °F 57.9 °F 96% 29.82 in 3.0 mi Calm Calm - N/A   Mostly Cloudy
10:53 PM 57.9 °F 57.0 °F 97% 29.82 in 3.0 mi Calm Calm - N/A   Partly Cloudy
11:05 PM 57.0 °F 55.9 °F 96% 29.82 in 0.2 mi Calm Calm - N/A Fog Fog
11:53 PM 55.0 °F 55.0 °F 100% 29.83 in 0.2 mi West 3.5 mph - N/A Fog Fog